{"data":{"norad_id":66638,"intl_designator":"2025-271X","name":"STARLINK-35972","alt_names":[],"object_type":"PAYLOAD","status":"ACTIVE","operator":null,"country":"US","launch_date":"2025-11-23","launch_site_code":"AFWTR","launch_vehicle":null,"mission":null,"orbit_class":"UNKNOWN","rcs_meters":null,"size_class":null,"mass_kg":null,"dimensions":null,"purposes":["comms"],"wikipedia_slug":null,"has_3d_model":false,"image_url":null,"decayed_at":null,"tle_current":{"epoch":"2026-05-24T17:16:46.347168Z","epoch_age_seconds":89415,"freshness":"FRESH","line1":"1 66638U 25271X   26144.71998087  .00009091  00000+0  31867-3 0  9998","line2":"2 66638  53.1601 147.0325 0001526  83.3153 276.8021 15.30200392 29200","mean_motion":15.30200392,"eccentricity":0.0001526,"inclination_deg":53.1601,"raan_deg":147.0325,"arg_perigee_deg":83.3153,"mean_anomaly_deg":276.8021,"bstar":0.00031867,"rev_number":2920,"period_min":94.10532159895,"perigee_km":474.16807763105,"apogee_km":476.25972032542,"semimajor_km":6853.3508989782,"source":"CELESTRAK","updated_at":"2026-05-25T13:38:21.298560Z"}}}